WXM80 ListenWXM80 Stop

You find our weather info also at:

UK Metoffice

WeatherCloud

Weather Underground

Northeastern Weather Network

AWEKAS

Citizen Weather Observer Program (CWOP)

HAMweather, WeatherForYou, PWS Weather


Weather Underground History page Text

Daily Summary for October 20, 2017 Units:  English    Metric   Both
« Previous Day
Next Day »
Daily Weekly Monthly Yearly Custom
  High: Low: Average:
Temperature: 73.5 °F 53.9 °F 62.2 °F
Dew Point: 52.6 °F 41.7 °F 49 °F
Humidity: 87 % 32 % 64 %
Wind Speed: 7.4 mph 0.0 mph 1.8 mph
Wind Gust: 12.7 mph - -
Wind:- - West
Pressure: 30.20 in 29.96 in -
Precipitation: 0.00 in    
Historical Graphs
 
 
Tabular Data for October 20, 2017
Time Temperature Dew Point Pressure Wind Wind Speed Wind Gust Humidity Rainfall Rate (Hourly)
00:04 59.3 °F 51.0 °F 30.05 in South 1.6 mph 5.8 mph 74 % 0.00 in
00:09 59.3 °F 51.0 °F 30.06 in SW 2.6 mph 4.0 mph 74 % 0.00 in
00:14 59.2 °F 50.9 °F 30.05 in SW 0.2 mph 3.5 mph 74 % 0.00 in
00:19 59.2 °F 50.9 °F 30.05 in SW 1.3 mph 3.0 mph 74 % 0.00 in
00:24 59.1 °F 50.8 °F 30.06 in WSW 2.0 mph 3.5 mph 74 % 0.00 in
00:29 59.1 °F 50.5 °F 30.05 in SW 0.9 mph 6.9 mph 73 % 0.00 in
00:34 59.1 °F 50.5 °F 30.05 in WSW 2.4 mph 4.6 mph 73 % 0.00 in
00:39 59.1 °F 50.8 °F 30.05 in SSW 1.4 mph 3.5 mph 74 % 0.00 in
00:45 59.0 °F 50.4 °F 30.05 in SW 0.7 mph 3.5 mph 73 % 0.00 in
00:50 59.0 °F 50.4 °F 30.06 in SW 1.0 mph 1.0 mph 73 % 0.00 in
00:55 59.0 °F 50.4 °F 30.05 in West 0.7 mph 3.5 mph 73 % 0.00 in
01:00 59.0 °F 50.4 °F 30.05 in SW 0.6 mph 3.5 mph 73 % 0.00 in
01:05 59.0 °F 50.4 °F 30.05 in WSW 1.4 mph 2.3 mph 73 % 0.00 in
01:10 59.0 °F 50.4 °F 30.05 in SW 3.5 mph 6.9 mph 73 % 0.00 in
01:15 59.0 °F 50.4 °F 30.05 in SW 3.0 mph 5.8 mph 73 % 0.00 in
01:17 59.0 °F 50.4 °F 30.05 in WSW 1.2 mph 4.0 mph 73 % 0.00 in
01:22 59.0 °F 50.4 °F 30.05 in SW 0.5 mph 2.3 mph 73 % 0.00 in
01:27 59.1 °F 50.5 °F 30.05 in WSW 1.0 mph 2.3 mph 73 % 0.00 in
01:32 59.0 °F 50.4 °F 30.05 in West 1.4 mph 3.5 mph 73 % 0.00 in
01:37 59.1 °F 50.5 °F 30.05 in WSW 0.7 mph 1.2 mph 73 % 0.00 in
01:43 59.1 °F 50.5 °F 30.05 in SW 0.4 mph 2.3 mph 73 % 0.00 in
01:48 59.0 °F 50.4 °F 30.05 in WSW 0.4 mph 2.3 mph 73 % 0.00 in
01:53 59.0 °F 50.7 °F 30.05 in WSW 0.2 mph 2.3 mph 74 % 0.00 in
01:58 59.0 °F 50.7 °F 30.05 in Calm     74 % 0.00 in
02:03 58.9 °F 50.6 °F 30.05 in SW 0.1 mph 2.3 mph 74 % 0.00 in
02:08 58.8 °F 50.5 °F 30.05 in Calm     74 % 0.00 in
02:13 58.7 °F 50.1 °F 30.05 in Calm   1.2 mph 73 % 0.00 in
02:18 58.5 °F 50.2 °F 30.05 in Calm   1.2 mph 74 % 0.00 in
02:23 58.4 °F 50.1 °F 30.05 in WSW 0.1 mph 1.2 mph 74 % 0.00 in
02:28 58.2 °F 50.3 °F 30.05 in Calm     75 % 0.00 in
02:33 58.1 °F 50.2 °F 30.05 in WSW 0.3 mph 1.2 mph 75 % 0.00 in
02:38 57.9 °F 50.4 °F 30.05 in Calm     76 % 0.00 in
02:43 57.7 °F 50.5 °F 30.05 in WSW 0.7 mph 1.2 mph 77 % 0.00 in
02:48 57.3 °F 50.5 °F 30.05 in WSW 0.4 mph 1.2 mph 78 % 0.00 in
02:53 57.1 °F 50.3 °F 30.05 in WSW 0.4 mph 1.0 mph 78 % 0.00 in
02:58 56.9 °F 50.5 °F 30.05 in Calm   1.2 mph 79 % 0.00 in
03:03 56.7 °F 50.3 °F 30.05 in WSW 0.3 mph 1.2 mph 79 % 0.00 in
03:08 56.6 °F 50.5 °F 30.05 in WSW 0.2 mph 1.2 mph 80 % 0.00 in
03:13 56.4 °F 50.3 °F 30.05 in WSW 0.6 mph 2.0 mph 80 % 0.00 in
03:18 56.3 °F 50.5 °F 30.05 in WSW 0.5 mph 2.3 mph 81 % 0.00 in
03:24 56.2 °F 50.8 °F 30.04 in SW 1.4 mph 2.3 mph 82 % 0.00 in
03:29 56.1 °F 50.7 °F 30.04 in SW 0.4 mph 2.3 mph 82 % 0.00 in
03:34 56.1 °F 50.7 °F 30.04 in SW 0.3 mph 1.2 mph 82 % 0.00 in
03:39 56.0 °F 50.9 °F 30.05 in SW 0.7 mph 2.3 mph 83 % 0.00 in
03:44 56.0 °F 50.9 °F 30.04 in SW 0.4 mph 1.2 mph 83 % 0.00 in
03:49 56.0 °F 50.9 °F 30.04 in Calm   1.2 mph 83 % 0.00 in
03:54 55.9 °F 50.8 °F 30.05 in Calm     83 % 0.00 in
03:59 56.0 °F 51.2 °F 30.04 in WSW 0.6 mph 2.0 mph 84 % 0.00 in
04:04 56.0 °F 51.2 °F 30.04 in WSW 1.1 mph 3.5 mph 84 % 0.00 in
04:09 55.9 °F 51.5 °F 30.05 in WSW 1.9 mph 5.0 mph 85 % 0.00 in
04:14 56.0 °F 51.9 °F 30.04 in SW 1.7 mph 3.5 mph 86 % 0.00 in
04:19 56.0 °F 51.9 °F 30.05 in NW 0.8 mph 2.0 mph 86 % 0.00 in
04:24 56.1 °F 52.3 °F 30.05 in WSW 0.8 mph 2.0 mph 87 % 0.00 in
04:29 56.2 °F 52.4 °F 30.05 in SSE 1.6 mph 3.5 mph 87 % 0.00 in
04:30 56.2 °F 52.4 °F 30.05 in South 0.7 mph 3.5 mph 87 % 0.00 in
04:35 56.3 °F 52.5 °F 30.05 in SSW 2.6 mph 3.5 mph 87 % 0.00 in
04:40 56.4 °F 52.6 °F 30.05 in SW 2.8 mph 4.6 mph 87 % 0.00 in
04:45 56.5 °F 52.4 °F 30.05 in WSW 2.6 mph 5.0 mph 86 % 0.00 in
04:50 56.5 °F 52.4 °F 30.05 in WSW 1.3 mph 3.5 mph 86 % 0.00 in
04:55 56.7 °F 52.6 °F 30.05 in SW 4.6 mph 6.9 mph 86 % 0.00 in
05:00 56.8 °F 52.3 °F 30.05 in SW 2.4 mph 3.5 mph 85 % 0.00 in
05:05 56.9 °F 52.4 °F 30.06 in West 1.5 mph 3.0 mph 85 % 0.00 in
05:10 57.1 °F 52.6 °F 30.06 in SW 3.1 mph 4.6 mph 85 % 0.00 in
05:15 57.2 °F 52.4 °F 30.06 in WSW 0.7 mph 6.9 mph 84 % 0.00 in
05:20 57.4 °F 52.3 °F 30.06 in WSW 2.4 mph 10.4 mph 83 % 0.00 in
05:25 57.6 °F 52.1 °F 30.10 in WSW 3.1 mph 4.0 mph 82 % 0.00 in
05:30 57.8 °F 52.0 °F 30.06 in WSW 0.8 mph 4.6 mph 81 % 0.00 in
05:35 58.0 °F 51.9 °F 30.07 in West 3.1 mph 3.5 mph 80 % 0.00 in
05:40 58.2 °F 51.4 °F 30.07 in WSW 2.8 mph 3.5 mph 78 % 0.00 in
05:45 58.4 °F 51.6 °F 30.07 in WSW 0.5 mph 3.5 mph 78 % 0.00 in
05:50 58.6 °F 52.1 °F 30.07 in WSW 2.9 mph 5.8 mph 79 % 0.00 in
05:51 58.6 °F 52.1 °F 30.07 in WSW 2.0 mph 6.0 mph 79 % 0.00 in
05:56 58.8 °F 52.3 °F 30.08 in WSW 1.0 mph 4.6 mph 79 % 0.00 in
06:01 58.9 °F 52.4 °F 30.08 in West 2.0 mph 6.9 mph 79 % 0.00 in
06:05 58.9 °F 52.1 °F 30.08 in WSW 0.7 mph 3.5 mph 78 % 0.00 in
06:11 58.9 °F 52.1 °F 30.08 in West 3.0 mph 8.0 mph 78 % 0.00 in
06:16 58.9 °F 51.7 °F 30.08 in WNW 3.0 mph 8.0 mph 77 % 0.00 in
06:21 58.8 °F 51.6 °F 30.08 in West 3.0 mph 7.0 mph 77 % 0.00 in
06:26 58.9 °F 51.7 °F 30.08 in West 1.0 mph 6.0 mph 77 % 0.00 in
06:31 58.9 °F 51.7 °F 30.08 in West 1.0 mph 4.0 mph 77 % 0.00 in
06:36 58.9 °F 51.3 °F 30.08 in WSW 1.6 mph 5.8 mph 76 % 0.00 in
06:41 59.0 °F 51.1 °F 30.08 in West 2.0 mph 9.0 mph 75 % 0.00 in
06:46 59.0 °F 51.1 °F 30.08 in West 3.0 mph 7.0 mph 75 % 0.00 in
06:51 59.0 °F 50.7 °F 30.08 in West 2.0 mph 5.0 mph 74 % 0.00 in
06:56 59.1 °F 50.8 °F 30.08 in WNW 0.9 mph 4.6 mph 74 % 0.00 in
07:01 59.1 °F 50.8 °F 30.08 in West 2.7 mph 3.5 mph 74 % 0.00 in
07:06 59.1 °F 50.8 °F 30.09 in WSW 1.9 mph 6.9 mph 74 % 0.00 in
07:11 59.1 °F 51.2 °F 30.09 in NW 2.4 mph 6.9 mph 75 % 0.00 in
07:16 59.1 °F 50.8 °F 30.09 in WNW 3.3 mph 6.0 mph 74 % 0.00 in
07:18 59.0 °F 50.7 °F 30.09 in WSW 3.0 mph 5.8 mph 74 % 0.00 in
07:23 59.0 °F 51.1 °F 30.09 in WNW 2.3 mph 4.6 mph 75 % 0.00 in
07:28 59.0 °F 51.1 °F 30.09 in WSW 3.8 mph 5.8 mph 75 % 0.00 in
07:33 59.0 °F 51.1 °F 30.10 in West 3.8 mph 5.8 mph 75 % 0.00 in
07:38 59.0 °F 51.1 °F 30.10 in WSW 2.3 mph 3.5 mph 75 % 0.00 in
07:43 59.0 °F 51.1 °F 30.10 in WNW 2.4 mph 3.5 mph 75 % 0.00 in
07:48 59.1 °F 51.2 °F 30.11 in WSW 2.6 mph 6.9 mph 75 % 0.00 in
07:53 59.1 °F 51.2 °F 30.11 in WNW 2.5 mph 4.6 mph 75 % 0.00 in
07:58 59.2 °F 51.3 °F 30.11 in WNW 2.2 mph 5.8 mph 75 % 0.00 in
08:03 59.3 °F 51.4 °F 30.12 in WSW 3.8 mph 6.9 mph 75 % 0.00 in
08:08 59.3 °F 51.4 °F 30.11 in West 3.9 mph 5.8 mph 75 % 0.00 in
08:13 59.4 °F 51.1 °F 30.12 in West 3.8 mph 9.2 mph 74 % 0.00 in
08:18 59.4 °F 51.5 °F 30.12 in WNW 1.6 mph 5.0 mph 75 % 0.00 in
08:23 59.5 °F 51.2 °F 30.12 in WNW 5.0 mph 9.2 mph 74 % 0.00 in
08:26 59.5 °F 50.8 °F 30.12 in West 4.8 mph 9.2 mph 73 % 0.00 in
08:32 59.6 °F 50.6 °F 30.12 in WNW 4.0 mph 6.9 mph 72 % 0.00 in
08:37 59.6 °F 50.2 °F 30.12 in West 3.3 mph 9.2 mph 71 % 0.00 in
08:42 59.8 °F 50.4 °F 30.12 in WNW 6.0 mph 8.0 mph 71 % 0.00 in
08:47 59.9 °F 50.5 °F 30.13 in WNW 1.3 mph 4.6 mph 71 % 0.00 in
08:52 60.0 °F 50.6 °F 30.13 in NNW 1.1 mph 4.6 mph 71 % 0.00 in
08:57 60.1 °F 50.7 °F 30.13 in West 1.8 mph 6.9 mph 71 % 0.00 in
09:02 60.2 °F 50.8 °F 30.13 in WNW 3.1 mph 5.8 mph 71 % 0.00 in
09:07 60.3 °F 50.9 °F 30.13 in NW 2.6 mph 5.8 mph 71 % 0.00 in
09:12 60.4 °F 50.2 °F 30.14 in WSW 1.8 mph 5.0 mph 69 % 0.00 in
09:17 60.5 °F 49.9 °F 30.14 in West 2.1 mph 8.1 mph 68 % 0.00 in
09:18 60.5 °F 49.9 °F 30.14 in WNW 3.8 mph 6.9 mph 68 % 0.00 in
09:23 60.6 °F 49.6 °F 30.14 in WNW 5.8 mph 11.5 mph 67 % 0.00 in
09:28 60.7 °F 48.9 °F 30.14 in WNW 3.1 mph 6.0 mph 65 % 0.00 in
09:33 60.9 °F 48.6 °F 30.14 in West 5.3 mph 11.5 mph 64 % 0.00 in
09:38 61.2 °F 48.9 °F 30.14 in WSW 3.0 mph 7.0 mph 64 % 0.00 in
09:43 61.4 °F 48.3 °F 30.15 in WNW 2.4 mph 5.0 mph 62 % 0.00 in
09:48 61.6 °F 48.0 °F 30.14 in West 4.7 mph 5.8 mph 61 % 0.00 in
09:53 61.7 °F 47.2 °F 30.14 in North 2.3 mph 12.7 mph 59 % 0.00 in
09:58 62.1 °F 48.5 °F 30.14 in NNE 2.3 mph 8.1 mph 61 % 0.00 in
10:03 62.5 °F 49.3 °F 30.15 in WNW 2.9 mph 5.8 mph 62 % 0.00 in
10:08 62.9 °F 48.3 °F 30.14 in NW 1.8 mph 8.1 mph 59 % 0.00 in
10:14 63.2 °F 49.1 °F 30.15 in WNW 0.8 mph 8.1 mph 60 % 0.00 in
10:19 63.4 °F 48.4 °F 30.15 in NW 3.7 mph 6.9 mph 58 % 0.00 in
10:24 63.5 °F 47.5 °F 30.15 in NNW 4.1 mph 8.1 mph 56 % 0.00 in
10:29 63.5 °F 47.5 °F 30.15 in NW 1.7 mph 5.8 mph 56 % 0.00 in
10:34 63.6 °F 47.6 °F 30.14 in WNW 2.2 mph 3.5 mph 56 % 0.00 in
10:39 63.6 °F 48.5 °F 30.15 in NW 4.3 mph 10.4 mph 58 % 0.00 in
10:44 63.7 °F 48.6 °F 30.14 in WNW 2.9 mph 9.2 mph 58 % 0.00 in
10:49 63.7 °F 49.1 °F 30.14 in WNW 2.2 mph 4.6 mph 59 % 0.00 in
10:54 63.7 °F 48.6 °F 30.14 in WNW 3.1 mph 5.8 mph 58 % 0.00 in
10:59 63.8 °F 48.7 °F 30.14 in West 5.1 mph 6.9 mph 58 % 0.00 in
11:04 64.0 °F 48.9 °F 30.14 in WNW 3.8 mph 6.9 mph 58 % 0.00 in
11:09 64.2 °F 49.1 °F 30.14 in NW 2.8 mph 5.8 mph 58 % 0.00 in
11:14 64.5 °F 48.9 °F 30.14 in West 2.7 mph 5.8 mph 57 % 0.00 in
11:19 65.0 °F 49.4 °F 30.14 in West 3.3 mph 4.6 mph 57 % 0.00 in
11:24 65.9 °F 52.1 °F 30.13 in West 0.3 mph 2.3 mph 61 % 0.00 in
11:29 66.7 °F 50.5 °F 30.13 in WNW 2.4 mph 3.5 mph 56 % 0.00 in
11:34 67.4 °F 49.7 °F 30.13 in West 1.5 mph 5.8 mph 53 % 0.00 in
11:44 69.0 °F 50.6 °F 30.12 in WSW 3.5 mph 6.9 mph 52 % 0.00 in
11:49 69.5 °F 49.5 °F 30.12 in WNW 5.3 mph 5.8 mph 49 % 0.00 in
11:55 69.9 °F 49.9 °F 30.12 in SW 3.5 mph 6.9 mph 49 % 0.00 in
12:00 70.4 °F 50.3 °F 30.12 in SSW 4.2 mph 7.0 mph 49 % 0.00 in
12:05 70.7 °F 48.3 °F 30.11 in SSW 7.4 mph 9.2 mph 45 % 0.00 in
12:10 70.7 °F 47.7 °F 30.11 in WSW 4.8 mph 6.9 mph 44 % 0.00 in
12:15 70.9 °F 49.1 °F 30.11 in SW 2.6 mph 5.8 mph 46 % 0.00 in
12:20 71.1 °F 48.7 °F 30.11 in West 2.7 mph 6.9 mph 45 % 0.00 in
12:25 71.2 °F 47.6 °F 30.11 in WSW 1.9 mph 4.6 mph 43 % 0.00 in
12:30 71.3 °F 47.0 °F 30.11 in SW 6.0 mph 10.4 mph 42 % 0.00 in
12:35 71.2 °F 46.9 °F 30.11 in WSW 4.2 mph 6.0 mph 42 % 0.00 in
12:40 71.1 °F 48.1 °F 30.11 in West 2.6 mph 4.0 mph 44 % 0.00 in
12:45 71.1 °F 47.5 °F 30.11 in WSW 2.9 mph 8.0 mph 43 % 0.00 in
12:50 71.2 °F 45.6 °F 30.10 in West 2.7 mph 10.4 mph 40 % 0.00 in
12:55 71.3 °F 46.4 °F 30.10 in WNW 3.6 mph 10.4 mph 41 % 0.00 in
13:00 71.5 °F 49.0 °F 30.10 in West 1.5 mph 4.0 mph 45 % 0.00 in
13:05 71.9 °F 46.3 °F 30.10 in WSW 0.8 mph 3.5 mph 40 % 0.00 in
13:10 72.2 °F 47.8 °F 30.10 in West 2.3 mph 3.5 mph 42 % 0.00 in
13:15 72.5 °F 48.7 °F 30.10 in WNW 3.3 mph 5.8 mph 43 % 0.00 in
13:20 72.7 °F 44.9 °F 30.12 in West 5.5 mph 10.4 mph 37 % 0.00 in
13:25 72.8 °F 45.7 °F 30.09 in West 1.9 mph 3.5 mph 38 % 0.00 in
13:28 72.8 °F 44.3 °F 30.09 in WNW 3.5 mph 8.1 mph 36 % 0.00 in
13:33 73.0 °F 44.5 °F 30.09 in WSW 5.4 mph 8.1 mph 36 % 0.00 in
13:38 73.0 °F 43.0 °F 30.09 in West 0.3 mph 5.8 mph 34 % 0.00 in
13:43 73.2 °F 46.8 °F 30.08 in NW 3.1 mph 8.0 mph 39 % 0.00 in
13:48 73.4 °F 46.9 °F 30.08 in West 1.1 mph 6.9 mph 39 % 0.00 in
13:53 73.4 °F 42.5 °F 30.08 in West 5.7 mph 10.4 mph 33 % 0.00 in
13:58 73.4 °F 43.3 °F 30.08 in West 4.9 mph 9.2 mph 34 % 0.00 in
14:03 73.4 °F 44.8 °F 30.08 in West 2.9 mph 6.9 mph 36 % 0.00 in
14:08 73.5 °F 43.4 °F 30.08 in WSW 5.6 mph 10.4 mph 34 % 0.00 in
14:13 73.5 °F 43.4 °F 30.08 in WNW 4.7 mph 9.2 mph 34 % 0.00 in
14:18 73.5 °F 42.6 °F 30.08 in NW 2.5 mph 5.0 mph 33 % 0.00 in
14:23 73.4 °F 42.5 °F 30.08 in SW 5.6 mph 10.4 mph 33 % 0.00 in
14:28 73.4 °F 41.7 °F 30.08 in WSW 4.7 mph 8.1 mph 32 % 0.00 in
14:33 73.3 °F 42.4 °F 30.07 in North 4.1 mph 10.4 mph 33 % 0.00 in
14:38 73.3 °F 43.2 °F 30.08 in WNW 3.7 mph 5.8 mph 34 % 0.00 in
14:43 73.3 °F 42.4 °F 30.10 in West 3.2 mph 8.1 mph 33 % 0.00 in
14:48 73.3 °F 43.2 °F 30.11 in WSW 6.1 mph 9.0 mph 34 % 0.00 in
14:53 73.2 °F 42.4 °F 30.10 in WSW 2.0 mph 5.8 mph 33 % 0.00 in
14:58 73.2 °F 43.9 °F 30.10 in West 4.1 mph 5.8 mph 35 % 0.00 in
15:03 73.1 °F 43.1 °F 30.10 in West 1.8 mph 11.5 mph 34 % 0.00 in
15:08 73.0 °F 43.7 °F 30.10 in NW 2.8 mph 8.1 mph 35 % 0.00 in
15:13 72.7 °F 43.5 °F 30.10 in WSW 5.2 mph 5.8 mph 35 % 0.00 in
15:18 72.6 °F 44.1 °F 30.10 in WNW 3.9 mph 7.0 mph 36 % 0.00 in
15:23 72.2 °F 43.8 °F 30.10 in NW 3.5 mph 6.9 mph 36 % 0.00 in
15:28 72.0 °F 44.3 °F 30.10 in SW 3.9 mph 5.8 mph 37 % 0.00 in
15:33 71.8 °F 43.4 °F 30.10 in West 2.1 mph 6.9 mph 36 % 0.00 in
15:38 71.6 °F 43.2 °F 30.10 in WSW 5.1 mph 7.0 mph 36 % 0.00 in
15:44 71.4 °F 43.8 °F 30.10 in West 3.0 mph 3.5 mph 37 % 0.00 in
15:49 71.2 °F 43.6 °F 30.10 in WSW 7.2 mph 8.0 mph 37 % 0.00 in
15:54 71.0 °F 43.4 °F 30.10 in WSW 5.1 mph 8.1 mph 37 % 0.00 in
15:59 70.9 °F 44.0 °F 30.10 in West 3.9 mph 8.1 mph 38 % 0.00 in
16:04 70.8 °F 45.3 °F 30.10 in WNW 5.8 mph 11.5 mph 40 % 0.00 in
16:09 70.6 °F 44.4 °F 30.10 in WSW 0.8 mph 3.5 mph 39 % 0.00 in
16:14 70.5 °F 44.3 °F 30.10 in WNW 3.3 mph 5.8 mph 39 % 0.00 in
16:19 70.4 °F 44.9 °F 30.10 in West 3.0 mph 4.6 mph 40 % 0.00 in
16:24 70.4 °F 44.9 °F 30.10 in SW 2.0 mph 4.0 mph 40 % 0.00 in
16:29 70.3 °F 45.5 °F 30.10 in WSW 2.8 mph 4.6 mph 41 % 0.00 in
16:34 70.3 °F 45.5 °F 30.10 in West 2.4 mph 5.8 mph 41 % 0.00 in
16:35 70.2 °F 45.4 °F 30.10 in WSW 3.3 mph 4.0 mph 41 % 0.00 in
16:40 70.2 °F 45.4 °F 30.10 in West 2.7 mph 5.0 mph 41 % 0.00 in
16:45 70.1 °F 45.3 °F 30.10 in WSW 2.9 mph 3.5 mph 41 % 0.00 in
16:50 70.0 °F 44.6 °F 30.10 in WSW 2.3 mph 5.8 mph 40 % 0.00 in
16:55 69.9 °F 45.1 °F 30.10 in WSW 3.3 mph 6.0 mph 41 % 0.00 in
17:00 69.8 °F 45.0 °F 30.10 in West 2.5 mph 5.8 mph 41 % 0.00 in
17:05 69.7 °F 45.6 °F 30.10 in Calm   2.3 mph 42 % 0.00 in
17:10 69.7 °F 45.6 °F 30.10 in WNW 1.4 mph 3.0 mph 42 % 0.00 in
17:15 69.5 °F 46.6 °F 30.08 in WSW 0.8 mph 3.5 mph 44 % 0.00 in
17:20 69.4 °F 46.5 °F 30.09 in Calm   2.3 mph 44 % 0.00 in
17:25 69.3 °F 47.0 °F 30.08 in WNW 0.1 mph 2.3 mph 45 % 0.00 in
17:30 69.2 °F 46.9 °F 30.09 in WNW 0.1 mph   45 % 0.00 in
17:36 69.0 °F 46.8 °F 30.08 in WNW 0.1 mph 1.2 mph 45 % 0.00 in
17:41 68.9 °F 46.6 °F 30.09 in WNW 1.0 mph 3.0 mph 45 % 0.00 in
17:46 68.7 °F 47.1 °F 30.11 in Calm   2.0 mph 46 % 0.00 in
17:51 68.4 °F 47.4 °F 30.09 in Calm   1.2 mph 47 % 0.00 in
17:55 68.2 °F 47.2 °F 30.10 in WNW 0.1 mph   47 % 0.00 in
18:01 67.9 °F 47.5 °F 30.09 in West 0.6 mph 1.2 mph 48 % 0.00 in
18:06 67.6 °F 48.3 °F 30.10 in Calm   3.0 mph 50 % 0.00 in
18:11 67.2 °F 50.0 °F 30.10 in Calm     54 % 0.00 in
18:15 66.6 °F 50.4 °F 30.10 in Calm   1.2 mph 56 % 0.00 in
18:21 66.1 °F 50.4 °F 30.10 in Calm     57 % 0.00 in
18:26 65.7 °F 50.5 °F 30.11 in Calm     58 % 0.00 in
18:31 65.2 °F 50.1 °F 30.10 in Calm   1.0 mph 58 % 0.00 in
18:36 64.9 °F 49.8 °F 30.11 in Calm     58 % 0.00 in
18:41 64.5 °F 49.4 °F 30.11 in West 0.2 mph   58 % 0.00 in
18:46 64.2 °F 50.0 °F 30.11 in West 1.0 mph 2.0 mph 60 % 0.00 in
18:51 63.8 °F 51.0 °F 30.11 in Calm   2.0 mph 63 % 0.00 in
18:56 63.5 °F 51.1 °F 30.12 in Calm   3.0 mph 64 % 0.00 in
19:01 63.2 °F 51.2 °F 30.12 in WNW 0.2 mph 1.2 mph 65 % 0.00 in
19:06 62.9 °F 51.0 °F 30.13 in Calm   2.0 mph 65 % 0.00 in
19:11 62.8 °F 51.3 °F 30.13 in Calm   2.0 mph 66 % 0.00 in
19:16 62.6 °F 51.1 °F 30.13 in Calm   2.0 mph 66 % 0.00 in
19:21 62.5 °F 51.4 °F 30.13 in NW 1.0 mph 2.0 mph 67 % 0.00 in
19:26 62.2 °F 51.1 °F 30.14 in WNW 1.0 mph 2.3 mph 67 % 0.00 in
19:31 62.0 °F 50.9 °F 30.14 in Calm   1.0 mph 67 % 0.00 in
19:36 61.8 °F 50.7 °F 30.14 in Calm   2.0 mph 67 % 0.00 in
19:41 61.6 °F 50.9 °F 30.14 in Calm     68 % 0.00 in
19:46 61.4 °F 50.3 °F 30.13 in Calm   2.0 mph 67 % 0.00 in
19:51 61.2 °F 49.8 °F 30.13 in Calm   2.0 mph 66 % 0.00 in
19:56 61.1 °F 49.7 °F 30.13 in Calm   1.0 mph 66 % 0.00 in
20:01 60.9 °F 50.3 °F 30.14 in NW 0.3 mph 1.0 mph 68 % 0.00 in
20:06 60.7 °F 50.5 °F 30.14 in NW 0.9 mph 1.2 mph 69 % 0.00 in
20:11 60.4 °F 50.6 °F 30.14 in NW 1.3 mph 2.3 mph 70 % 0.00 in
20:16 60.1 °F 50.3 °F 30.14 in Calm     70 % 0.00 in
20:21 59.9 °F 49.7 °F 30.13 in Calm     69 % 0.00 in
20:26 59.6 °F 49.8 °F 30.14 in Calm     70 % 0.00 in
20:31 59.3 °F 49.5 °F 30.14 in Calm     70 % 0.00 in
20:36 59.1 °F 49.3 °F 30.14 in NW 0.4 mph 1.2 mph 70 % 0.00 in
20:41 58.9 °F 49.5 °F 30.14 in Calm     71 % 0.00 in
20:46 58.5 °F 49.5 °F 30.14 in NW 0.9 mph 2.0 mph 72 % 0.00 in
20:51 58.3 °F 49.7 °F 30.14 in NW 0.5 mph 1.2 mph 73 % 0.00 in
20:52 58.3 °F 49.7 °F 30.14 in NW 0.5 mph 1.2 mph 73 % 0.00 in
20:57 58.1 °F 49.9 °F 30.14 in Calm     74 % 0.00 in
21:02 57.8 °F 49.9 °F 30.14 in Calm     75 % 0.00 in
21:07 57.6 °F 49.7 °F 30.14 in Calm     75 % 0.00 in
21:12 57.3 °F 49.8 °F 30.15 in Calm     76 % 0.00 in
21:17 57.1 °F 49.6 °F 30.15 in Calm   1.2 mph 76 % 0.00 in
21:22 56.8 °F 49.3 °F 30.15 in NW 0.5 mph 1.2 mph 76 % 0.00 in
21:27 56.6 °F 49.1 °F 30.15 in Calm     76 % 0.00 in
21:32 56.3 °F 49.2 °F 30.15 in NW 0.2 mph 1.0 mph 77 % 0.00 in
21:37 56.1 °F 49.0 °F 30.15 in Calm     77 % 0.00 in
21:42 55.9 °F 48.8 °F 30.16 in Calm     77 % 0.00 in
21:47 55.7 °F 48.9 °F 30.16 in Calm     78 % 0.00 in
21:53 55.6 °F 48.8 °F 30.16 in Calm   1.2 mph 78 % 0.00 in
21:58 55.4 °F 48.7 °F 30.16 in NW 0.5 mph 1.2 mph 78 % 0.00 in
22:03 55.3 °F 48.9 °F 30.16 in NW 0.1 mph 1.2 mph 79 % 0.00 in
22:07 55.0 °F 48.3 °F 30.16 in NW 0.5 mph 1.2 mph 78 % 0.00 in
22:13 54.9 °F 48.2 °F 30.17 in Calm     78 % 0.00 in
22:18 54.7 °F 48.0 °F 30.17 in Calm     78 % 0.00 in
22:23 54.6 °F 48.2 °F 30.17 in NW 0.7 mph 1.2 mph 79 % 0.00 in
22:28 54.5 °F 48.1 °F 30.17 in NW 0.8 mph 2.3 mph 79 % 0.00 in
22:33 54.4 °F 48.0 °F 30.18 in WNW 0.9 mph 3.5 mph 79 % 0.00 in
22:38 54.3 °F 48.3 °F 30.17 in SW 0.1 mph 1.2 mph 80 % 0.00 in
22:43 54.2 °F 48.5 °F 30.18 in SW 1.0 mph 2.3 mph 81 % 0.00 in
22:48 54.1 °F 48.4 °F 30.20 in Calm     81 % 0.00 in
22:53 54.1 °F 48.4 °F 30.18 in Calm     81 % 0.00 in
22:58 54.1 °F 48.7 °F 30.18 in SW 0.3 mph 1.2 mph 82 % 0.00 in
23:03 54.0 °F 48.6 °F 30.18 in SW 0.8 mph 2.3 mph 82 % 0.00 in
23:08 54.0 °F 48.6 °F 30.18 in SW 0.2 mph 1.0 mph 82 % 0.00 in
23:13 53.9 °F 48.2 °F 30.18 in Calm   1.2 mph 81 % 0.00 in
23:19 53.9 °F 47.9 °F 30.19 in Calm   1.2 mph 80 % 0.00 in
23:20 53.9 °F 47.9 °F 30.18 in Calm     80 % 0.00 in
23:21 54.0 °F 48.0 °F 30.19 in Calm   1.2 mph 80 % 0.00 in
23:25 53.9 °F 47.9 °F 30.18 in WSW 1.4 mph 2.3 mph 80 % 0.00 in
23:29 53.9 °F 47.5 °F 29.96 in West 1.5 mph 3.5 mph 79 % 0.00 in
23:30 54.0 °F 47.6 °F 30.19 in West 0.5 mph 3.5 mph 79 % 0.00 in
23:35 54.1 °F 47.7 °F 30.18 in WSW 1.2 mph 2.3 mph 79 % 0.00 in
23:40 54.2 °F 47.8 °F 30.19 in Calm     79 % 0.00 in
23:45 54.4 °F 48.0 °F 30.19 in WSW 0.4 mph 1.2 mph 79 % 0.00 in
23:50 54.4 °F 48.0 °F 30.19 in Calm     79 % 0.00 in
23:55 54.5 °F 48.1 °F 30.19 in Calm     79 % 0.00 in
Crab Meadow Weather
Compliments of Weather Underground - 3 mb

Script developed by  Jim McMurry - jmcmurry@mwt.net Adapted for the template by  Wim van der Kuil - Leuven-Template.eu

Astronomy: One day on Uranus is 18 hours